Погода в Палембанге

Индонезия     2°57′54″S   104°44′47″E
темп.,
°C
ветер,
м/с
пор.,
м/с
влажн.,
%
обл.,
%
осадки,
мм/ч
давл.,
гПа
погр.,
м
23 мая, пн
пн2301:00+24ююв2596100 0.1 1008150
04:00+23ююв129799 0.0 100733
07:00+24ю249550 0.0 1008162
10:00+30ююв347292 0.0 1009955
13:00+32ю225899 0.1 10071579
16:00+29юв2376100 1.8 1006509
19:00+26юв249199 2.9 100882
22:00+25вюв25955 0.4 1009123
24 мая, вт
вт2401:00+24ююв249786 0.4 1009101
04:00+24ююв239797 0.0 100877
07:00+25ююв1394100 0.0 1010117
10:00+28ююв2282100 0.0 1010482
13:00+30ююв1271100 0.5 1008929
16:00+27вюв2288100 2.4 100869
19:00+25ююв2495100 2.4 100997
22:00+25ю249398 0.0 101189
25 мая, ср
ср2501:00+24ююв239630 1.0 101085
04:00+23юв1197100 2.0 100931
07:00+23ююв1297100 4.3 101169
10:00+26ююв2488100 0.5 1012366
13:00+26ю2389100 0.5 1010286
16:00+25вюв1292100 0.0 1008115
19:00+24юв2392100 0.0 101075
22:00+24юв1191100 0.3 101122
26 мая, чт
чт2601:00+23ююз2294100 0.3 101053
04:00+23зюз2395100 0.0 1009105
07:00+23з1395100 0.0 1011151
10:00+23ссв1197100 0.9 101284
13:00+23всв2495100 2.0 1010210
16:00+23св2798100 1.5 1009312
19:00+23в1298100 2.1 101071
22:00+23ю2396100 0.0 101170
27 мая, пт
пт2701:00+22юз2497100 0.0 1009151
04:00+22зюз2497100 0.0 1008124
07:00+23юз1294100 0.0 100981
10:00+28в117497 0.0 1010642
13:00+31вюв115875 0.0 10061154
16:00+31ссв2263100 0.0 1005589
19:00+26св2275100 0.0 100715
22:00+24в248995 0.1 101093